Location: Eldred Sherwood Park Lake Dam
(42.9416°N, 93.5655°W)
Time: 09:04:22
(UTC+00:00)

Tiros 1 - Pass Details

Date: 07 November 2024
Orbit: 622 x 653 km, 48.4° (Epoch: 06 December)

Event Time Altitude Azimuth Distance (km) Brightness Sun altitude
Rises 23:46:56 0° 193° (SSW) 2,938 10.9 -9.3°
Reaches altitude 10° 23:49:57 10° 173° (S) 2,039 9.8 -9.8°
Maximum altitude 23:52:57 17° 133° (SE) 1,635 8.9 -10.4°
Enters shadow 23:55:19 12° 100° (E) 1,905 9.0 -10.8°
